SCP
0 0 0 0 0 0 0 0 0 0 0 0 0 0 0 0 0 0 0 0 0 0
0 0 0 0 0 0 0 0 0 0 0 0 0 0 0 0 0 0 0 0 0 0
0 0 0 0 0 0 0 0 0 0 0 0 0 0 0 0 0 0 0 0 0 0
0 0 0 0 0 0 0 0 0 0 0 0 0 0 0 0 0 0 0 0 0 0
0 0 0 0 0 0 0 0 0 0 0 0 0 0 0 0 0 0 0 0 0 0
0 0 0 0 0 0 0 0 0 0 0 0 0 0 0 0 0 0 0 0 0 0
0 0 0 0 0 0 0 0 0 0 0 0 0 0 0 0 0 0 0 0 0 0
0 0 0 0 0 0 0 0 0 0 0 0 0 0 0 0 0 0 0 0 0 0
0 0 0 0 0 0 0 0 0 0 0 0 0 0 0 0 0 0 0 0 0 0
0 0 0 0 0 0 0 0 0 0 0 0 0 0 0 0 0 0 0 0 0 0
0 0 0 0 0 0 0 0 0 0 0 0 0 0 0 0 0 0 0 0 0 0
0 0 0 0 0 0 0 0 0 0 0 0 0 0 0 0 0 0 0 0 0 0
0 0 0 0 0 0 0 0 0 0 0 0 0 0 0 0 0 0 0 0 0 0
0 0 0 0 0 0 0 0 0 0 0 0 0 0 0 0 0 0 0 0 0 0
Wind_Speed_500mb
26 21 17 14 10 5 0 5 8 11 13 15 17 19 20 21 22 23 23 23 22 22
31 27 21 19 14 9 5 3 5 8 10 13 15 17 18 19 21 22 23 23 23 23
35 32 29 26 20 15 11 9 6 9 11 13 15 17 19 20 22 22 24 25 26 27
42 40 37 31 28 21 19 15 11 11 14 14 16 18 21 22 23 24 26 28 30 31
46 45 44 40 34 29 25 22 17 16 18 18 19 20 23 25 26 27 29 30 33 34
49 50 48 43 39 36 32 27 25 22 21 22 22 24 25 28 30 33 35 37 39 39
47 49 47 45 42 40 38 36 33 30 29 27 28 29 29 32 35 37 40 42 44 46
40 42 44 46 43 44 44 42 40 38 36 34 35 35 36 38 41 44 46 47 49 51
34 39 42 45 45 45 45 44 45 46 44 42 41 42 43 46 50 52 53 53 54 56
42 43 44 47 48 48 49 49 51 51 52 50 48 48 50 52 57 60 60 62 64 67
41 43 46 48 49 49 50 50 51 51 52 54 52 54 57 59 62 67 70 71 74 77
36 38 40 42 43 46 48 47 48 49 52 55 55 57 60 64 69 75 79 80 80 79
30 32 35 37 39 41 43 43 46 47 51 53 57 59 61 64 68 74 77 79 77 74
23 25 29 32 34 38 42 44 47 50 51 53 56 58 59 58 58 62 67 67 70 69
Wind_Direction_500mb
218 218 217 215 206 200 317 27 18 20 18 17 15 13 12 9 8 6 4 1 357 351
219 222 221 224 221 219 239 290 349 351 356 358 358 358 358 357 357 356 353 351 348 343
226 224 223 225 230 231 245 268 303 325 332 335 337 340 341 344 345 343 341 339 338 335
225 228 229 230 232 239 246 258 285 308 307 313 317 321 324 326 329 330 330 329 328 326
230 228 231 234 237 242 249 259 271 286 296 299 301 305 310 312 316 319 321 321 320 319
234 232 233 236 239 246 251 258 262 273 287 290 291 294 297 301 306 311 314 315 315 315
237 240 239 238 240 247 254 255 259 266 276 283 280 284 288 293 298 301 305 307 307 308
249 245 247 244 243 248 252 256 258 261 268 273 274 278 281 286 291 295 297 299 301 302
256 252 249 249 250 251 255 257 257 259 263 267 272 273 278 284 288 291 293 296 298 298
244 244 243 247 248 248 251 254 255 258 263 268 274 276 279 284 287 289 291 293 294 294
243 246 247 247 250 253 255 257 259 261 266 271 274 277 282 284 286 287 289 289 289 289
242 245 248 252 256 260 261 263 266 270 274 277 279 280 282 283 285 286 287 288 287 288
247 255 258 260 263 268 270 272 275 277 280 282 284 286 286 288 289 290 290 289 289 289
255 260 266 270 272 275 279 281 283 285 287 289 290 291 293 294 293 293 295 296 296 294
Wind_Speed_850mb
26 21 17 14 10 5 0 5 8 11 13 15 17 19 20 21 22 23 23 23 22 22
31 27 21 19 14 9 5 3 5 8 10 13 15 17 18 19 21 22 23 23 23 23
35 32 29 26 20 15 11 9 6 9 11 13 15 17 19 20 22 22 24 25 26 27
42 40 37 31 28 21 19 15 11 11 14 14 16 18 21 22 23 24 26 28 30 31
46 45 44 40 34 29 25 22 17 16 18 18 19 20 23 25 26 27 29 30 33 34
49 50 48 43 39 36 32 27 25 22 21 22 22 24 25 28 30 33 35 37 39 39
47 49 47 45 42 40 38 36 33 30 29 27 28 29 29 32 35 37 40 42 44 46
40 42 44 46 43 44 44 42 40 38 36 34 35 35 36 38 41 44 46 47 49 51
34 39 42 45 45 45 45 44 45 46 44 42 41 42 43 46 50 52 53 53 54 56
42 43 44 47 48 48 49 49 51 51 52 50 48 48 50 52 57 60 60 62 64 67
41 43 46 48 49 49 50 50 51 51 52 54 52 54 57 59 62 67 70 71 74 77
36 38 40 42 43 46 48 47 48 49 52 55 55 57 60 64 69 75 79 80 80 79
30 32 35 37 39 41 43 43 46 47 51 53 57 59 61 64 68 74 77 79 77 74
23 25 29 32 34 38 42 44 47 50 51 53 56 58 59 58 58 62 67 67 70 69
Wind_Direction_850mb
218 218 217 215 206 200 317 27 18 20 18 17 15 13 12 9 8 6 4 1 357 351
219 222 221 224 221 219 239 290 349 351 356 358 358 358 358 357 357 356 353 351 348 343
226 224 223 225 230 231 245 268 303 325 332 335 337 340 341 344 345 343 341 339 338 335
225 228 229 230 232 239 246 258 285 308 307 313 317 321 324 326 329 330 330 329 328 326
230 228 231 234 237 242 249 259 271 286 296 299 301 305 310 312 316 319 321 321 320 319
234 232 233 236 239 246 251 258 262 273 287 290 291 294 297 301 306 311 314 315 315 315
237 240 239 238 240 247 254 255 259 266 276 283 280 284 288 293 298 301 305 307 307 308
249 245 247 244 243 248 252 256 258 261 268 273 274 278 281 286 291 295 297 299 301 302
256 252 249 249 250 251 255 257 257 259 263 267 272 273 278 284 288 291 293 296 298 298
244 244 243 247 248 248 251 254 255 258 263 268 274 276 279 284 287 289 291 293 294 294
243 246 247 247 250 253 255 257 259 261 266 271 274 277 282 284 286 287 289 289 289 289
242 245 248 252 256 260 261 263 266 270 274 277 279 280 282 283 285 286 287 288 287 288
247 255 258 260 263 268 270 272 275 277 280 282 284 286 286 288 289 290 290 289 289 289
255 260 266 270 272 275 279 281 283 285 287 289 290 291 293 294 293 293 295 296 296 294